Find Starlink 32332

NORAD ID: 62490 Int'l Des: 2025-003 Owner: SPXS Country: US Constellation: starlink operational
LEOCIRCULAR

当前视图

正在加载3D地球...

About Starlink 32332

Starlink 32332 (NORAD 62490) is a starlink constellation satellite (v2 mini) launched Jan 6, 2025 by SPXS of US. It operates in LEO, CIRCULAR orbit with a mass of 730.00 kg.

关于 Starlink 32332

正在加载描述...

即将过境

Passes for default location (London). Set your location on the main map for personalized predictions.

高度历史

Loading altitude history...

两行轨道根数

1 62490U 25003D 26169.47258845 .00009632 00000-0 35912-3 0 9991
2 62490 43.0048 79.9208 0001263 268.6119 91.4588 15.27577810 82066
Epoch: Jun 18, 2026 • Age: 12 hours

当前状态

高度 489.4 km
速度 7.62 km/s
星下点 -27.13°S, 33.63°E
发射日期 Jan 6, 2025
运行时间 1.4 years
类型 internet

技术详情

分类 Payload
质量 730.00 kg
干质量 700.00 kg
总质量 730.00 kg
长度 0.30 m
直径 4.10 m
跨度 29.00 m
形状 Box + pan
制造商 SPXS
平台类型 Starlink V2M
阶段状态 In Orbit
所有者/国家 SPXS/US

Most Searched